Flag for Switzerland Weather past 2 weeks in Thun, Bern, Switzerland

Now
66 °F

Scattered clouds.


Feels Like: 66 °F
Forecast: 52 / 77 °F
Wind: 8 mph from West

Location: Bern / Belp

Current Time: Aug 27, 2014 at 10:57:09 AM

Latest Report: Aug 27, 2014 at 10:20 AM


Visibility: N/A

Pressure: 30.01 "Hg

Humidity: 64%

Dew point: 54 °F

Location of ThunLocation

Historic Weather in Thun — Graph

°F

Thun temperature yesterday

Maximum temperature yesterday: 66 °F (at 5:50 PM)
Minimum temperature yesterday: 55 °F (at 12:20 AM)
Average temperature yesterday: 59 °F

Past Weeks' High & Low Weather Summary

 TemperatureHumidityPressure
High75 °F (Aug 18, 4:50 PM)100% (Aug 13, 7:50 AM)30.21 "Hg (Aug 13, 7:50 AM)
Low45 °F (Aug 17, 5:20 AM)31% (Aug 18, 5:50 PM)29.68 "Hg (Aug 13, 8:50 AM)
Average58 °F78%30.01 "Hg
* Reported Aug 12 9:20 AM — Aug 27 9:50 AM, Thun, Weather by CustomWeather, © 2014

Note: Actual official high and low records may vary slightly from our data, if they occured in-between our weather recording intervals... More about our weather records

Advertising

Thun weather history for previous 24 hours

 ConditionsComfort  
Time TempWeatherWind HumidityBarometerVisibility
9:50 AM
Aug 27
64 °FScattered clouds.6 mph73%30.01 "HgN/A
9:20 AM64 °FScattered clouds.5 mph73%30.01 "HgN/A
8:50 AM63 °FScattered clouds.2 mph88%29.98 "HgN/A
8:20 AM59 °FBroken clouds.2 mph100%29.98 "HgN/A
7:50 AM57 °FBroken clouds.1 mph100%29.98 "HgN/A
7:20 AM57 °FPartly cloudy.2 mph100%29.98 "HgN/A
6:50 AM57 °FPartly cloudy.2 mph100%29.95 "HgN/A
6:20 AM57 °FPassing clouds.3 mph94%29.95 "HgN/A
5:50 AM57 °FSprinkles. Partly cloudy.3 mph100%29.95 "HgN/A
5:20 AM57 °FPassing clouds.5 mph100%29.95 "HgN/A
4:50 AM57 °FMostly cloudy.8 mph100%29.92 "HgN/A
4:20 AM57 °FPartly cloudy.7 mph100%29.92 "HgN/A
3:50 AM57 °FOvercast.5 mph100%29.92 "HgN/A
3:20 AM57 °FMostly cloudy.5 mph100%29.92 "HgN/A
1:50 AM59 °FLight rain. Passing clouds.1 mph94%29.92 "HgN/A
1:20 AM59 °FHeavy rain. Passing clouds.5 mph94%29.92 "Hg4 mi
12:50 AM57 °FPartly cloudy.1 mph94%29.89 "HgN/A
12:20 AM57 °FOvercast.1 mph100%29.89 "HgN/A
11:50 PM
Aug 26
57 °FPartly cloudy.3 mph94%29.89 "HgN/A
11:20 PM57 °FPartly cloudy.3 mph94%29.89 "HgN/A
10:50 PM57 °FPartly cloudy.3 mph94%29.86 "HgN/A
10:20 PM59 °FPassing clouds.2 mph94%29.89 "HgN/A
9:50 PM63 °FPassing clouds.2 mph83%29.86 "HgN/A
9:20 PM64 °FScattered clouds.3 mph78%29.86 "HgN/A
8:50 PM64 °FPartly sunny.2 mph78%29.86 "HgN/A
8:20 PM64 °FBroken clouds.6 mph78%29.86 "HgN/A
7:50 PM66 °FScattered clouds.8 mph73%29.86 "HgN/A
7:20 PM66 °FBroken clouds.10 mph73%29.86 "HgN/A
6:50 PM66 °FBroken clouds.8 mph73%29.86 "HgN/A
6:20 PM66 °FPartly sunny.6 mph78%29.83 "HgN/A
5:50 PM66 °FPartly sunny.7 mph83%29.83 "HgN/A
5:20 PM63 °FBroken clouds.8 mph100%29.83 "HgN/A
4:50 PM63 °FPartly sunny.5 mph94%29.83 "HgN/A
4:20 PM63 °FLight rain. Partly sunny.7 mph94%29.83 "Hg3 mi
3:50 PM63 °FBroken clouds.5 mph94%29.83 "HgN/A
3:20 PM61 °FBroken clouds.7 mph94%29.83 "HgN/A
2:50 PM61 °FPartly sunny.3 mph100%29.83 "HgN/A
2:20 PM61 °FSprinkles. Partly sunny.5 mph94%29.86 "Hg3 mi
1:50 PM61 °FDrizzle. Broken clouds.3 mph94%29.86 "Hg3 mi
1:20 PM61 °FPartly sunny.3 mph94%29.86 "Hg3 mi
12:50 PM59 °FRain. Fog.2 mph100%29.86 "Hg3 mi
12:20 PM59 °FLight rain. Fog.2 mph100%29.86 "Hg3 mi
11:50 AM59 °FLight rain. Partly sunny.5 mph94%29.86 "Hg4 mi
11:20 AM59 °FLight rain. Broken clouds.7 mph94%29.86 "Hg3 mi
10:50 AM59 °FDrizzle. Low clouds.5 mph94%29.86 "Hg4 mi
10:20 AM59 °FLight rain. Broken clouds.5 mph94%29.86 "HgN/A
Weather by CustomWeather, © 2014

See weather overviewHow to use our weather pages